Radiation Dose at Monitoring Post of Fukushima Daini Nuclear Power Station
Date,Time,MP-1(microSv/h),MP-2(microSv/h),MP-3(microSv/h),MP-4(microSv/h),MP-5(microSv/h),MP-6(microSv/h),MP-7(microSv/h),Wind Direction,Wind Velocity(m/s),Rain
2023/10/05,00:00,0.145,0.131,0.210,0.199,0.207,0.118,0.075,southwest,1.9,No
2023/10/05,00:10,0.145,0.129,0.209,0.200,0.207,0.118,0.075,south-southwest,1.5,No
2023/10/05,00:20,0.145,0.131,0.211,0.200,0.204,0.118,0.075,south,1.9,No
2023/10/05,00:30,0.145,0.131,0.210,0.200,0.207,0.118,0.076,south-southwest,1.9,No
2023/10/05,00:40,0.144,0.131,0.210,0.199,0.205,0.119,0.076,south-southwest,2.4,No
2023/10/05,00:50,0.146,0.130,0.210,0.200,0.208,0.117,0.075,south,2.4,No
2023/10/05,01:00,0.145,0.132,0.210,0.198,0.206,0.118,0.075,south-southwest,2.4,No
2023/10/05,01:10,0.146,0.131,0.208,0.201,0.208,0.119,0.076,south-southwest,1.6,No
2023/10/05,01:20,0.145,0.131,0.211,0.198,0.208,0.118,0.075,south-southwest,1.2,No
2023/10/05,01:30,0.145,0.131,0.209,0.201,0.207,0.118,0.076,south,1.6,No
2023/10/05,01:40,0.145,0.131,0.210,0.199,0.208,0.118,0.075,south,1.8,No
2023/10/05,01:50,0.146,0.131,0.210,0.201,0.207,0.119,0.076,south,2.8,No
2023/10/05,02:00,0.146,0.131,0.211,0.199,0.208,0.119,0.076,south,2.6,No
2023/10/05,02:10,0.145,0.130,0.209,0.200,0.206,0.118,0.076,south,2.8,No
2023/10/05,02:20,0.145,0.131,0.210,0.198,0.208,0.118,0.075,south,3.3,No
2023/10/05,02:30,0.144,0.131,0.210,0.200,0.206,0.119,0.076,south,3.4,No
2023/10/05,02:40,0.146,0.131,0.211,0.199,0.207,0.118,0.076,south,2.6,No
2023/10/05,02:50,0.144,0.131,0.210,0.201,0.207,0.119,0.076,southwest,2.3,No
2023/10/05,03:00,0.146,0.131,0.211,0.201,0.208,0.119,0.076,south-southwest,2.3,No
2023/10/05,03:10,0.145,0.132,0.210,0.200,0.209,0.118,0.076,south,1.1,No
2023/10/05,03:20,0.146,0.131,0.210,0.200,0.207,0.119,0.076,south-southwest,2.3,No
2023/10/05,03:30,0.146,0.131,0.210,0.200,0.208,0.119,0.076,south-southwest,3.8,No
2023/10/05,03:40,0.146,0.130,0.212,0.201,0.207,0.119,0.076,south,2.9,No
2023/10/05,03:50,0.145,0.131,0.211,0.199,0.209,0.118,0.076,south-southeast,2.4,No
2023/10/05,04:00,0.146,0.131,0.211,0.202,0.207,0.119,0.077,south-southwest,1.5,No
2023/10/05,04:10,0.146,0.131,0.211,0.199,0.208,0.118,0.075,south,1.5,No
2023/10/05,04:20,0.145,0.131,0.212,0.201,0.206,0.118,0.076,south-southwest,0.8,No
2023/10/05,04:30,0.146,0.131,0.211,0.200,0.208,0.118,0.076,-,CALM,No
2023/10/05,04:40,0.146,0.130,0.212,0.200,0.207,0.120,0.076,-,CALM,No
2023/10/05,04:50,0.145,0.131,0.211,0.200,0.207,0.118,0.076,-,CALM,No
2023/10/05,05:00,0.146,0.131,0.211,0.201,0.209,0.119,0.076,southeast,1.4,No
2023/10/05,05:10,0.147,0.131,0.211,0.200,0.206,0.119,0.076,southeast,2.1,No
2023/10/05,05:20,0.145,0.131,0.211,0.202,0.209,0.118,0.076,south-southeast,1.1,No
2023/10/05,05:30,0.146,0.131,0.211,0.199,0.206,0.119,0.076,east-southeast,0.6,No
2023/10/05,05:40,0.144,0.131,0.211,0.202,0.209,0.118,0.076,east-southeast,1.0,No
2023/10/05,05:50,0.147,0.131,0.211,0.199,0.206,0.119,0.076,east-southeast,1.8,No
2023/10/05,06:00,0.145,0.132,0.212,0.200,0.207,0.118,0.076,southeast,1.0,No
2023/10/05,06:10,0.147,0.132,0.211,0.201,0.206,0.120,0.076,east-southeast,0.8,Yes
2023/10/05,06:20,0.146,0.132,0.210,0.200,0.208,0.119,0.076,-,CALM,No
2023/10/05,06:30,0.146,0.131,0.211,0.200,0.207,0.118,0.076,-,CALM,No
2023/10/05,06:40,0.146,0.133,0.210,0.200,0.207,0.118,0.076,-,CALM,No
2023/10/05,06:50,0.145,0.131,0.211,0.199,0.210,0.118,0.076,-,CALM,No
2023/10/05,07:00,0.147,0.132,0.212,0.201,0.207,0.119,0.075,-,CALM,No
2023/10/05,07:10,0.146,0.131,0.211,0.199,0.208,0.118,0.075,-,CALM,No
2023/10/05,07:20,0.146,0.132,0.211,0.200,0.205,0.119,0.076,east-northeast,0.6,Yes
2023/10/05,07:30,0.145,0.131,0.212,0.199,0.209,0.119,0.076,northeast,0.9,No
2023/10/05,07:40,0.146,0.131,0.211,0.200,0.205,0.119,0.075,north-northeast,1.6,No
2023/10/05,07:50,0.145,0.131,0.211,0.199,0.208,0.119,0.076,northwest,2.2,No
2023/10/05,08:00,0.147,0.131,0.210,0.198,0.208,0.118,0.076,northwest,2.0,No
2023/10/05,08:10,0.145,0.131,0.211,0.200,0.207,0.118,0.075,north,0.9,No
2023/10/05,08:20,0.145,0.131,0.210,0.198,0.208,0.119,0.076,east,0.9,No
2023/10/05,08:30,0.146,0.132,0.210,0.200,0.207,0.119,0.076,southeast,1.5,No
2023/10/05,08:40,0.145,0.132,0.211,0.199,0.208,0.119,0.075,south-southeast,1.6,No
2023/10/05,08:50,0.146,0.132,0.210,0.201,0.207,0.119,0.076,south-southeast,2.6,No
2023/10/05,09:00,0.144,0.132,0.212,0.200,0.208,0.118,0.076,south,3.3,No
2023/10/05,09:10,0.146,0.132,0.210,0.200,0.207,0.119,0.076,south,3.4,No
2023/10/05,09:20,0.146,0.131,0.213,0.200,0.206,0.119,0.075,south-southeast,2.9,No
2023/10/05,09:30,0.145,0.131,0.209,0.199,0.209,0.118,0.076,south-southeast,2.9,No
2023/10/05,09:40,0.147,0.131,0.212,0.200,0.208,0.120,0.076,south,2.6,No
2023/10/05,09:50,0.146,0.131,0.210,0.199,0.207,0.119,0.076,south-southeast,2.4,No
2023/10/05,10:00,0.146,0.131,0.211,0.200,0.208,0.119,0.076,south,2.0,No
2023/10/05,10:10,0.146,0.131,0.211,0.200,0.207,0.120,0.076,south-southeast,2.1,No
2023/10/05,10:20,0.145,0.131,0.210,0.200,0.206,0.119,0.076,south-southeast,1.9,No
2023/10/05,10:30,0.146,0.132,0.212,0.201,0.208,0.120,0.075,south,2.3,No
2023/10/05,10:40,0.146,0.131,0.212,0.201,0.207,0.119,0.077,south,2.4,No
2023/10/05,10:50,0.144,0.132,0.211,0.200,0.205,0.118,0.077,south,3.8,No
2023/10/05,11:00,0.146,0.132,0.213,0.200,0.210,0.119,0.075,south,4.1,No
2023/10/05,11:10,0.146,0.130,0.209,0.202,0.207,0.119,0.076,south,4.0,No
2023/10/05,11:20,0.145,0.131,0.210,0.199,0.205,0.118,0.076,south,3.4,Yes
2023/10/05,11:30,0.145,0.132,0.212,0.202,0.209,0.120,0.076,south-southwest,4.0,No
2023/10/05,11:40,0.146,0.130,0.210,0.201,0.208,0.119,0.077,south-southwest,3.8,No
2023/10/05,11:50,0.144,0.132,0.212,0.198,0.206,0.119,0.076,south-southwest,3.4,No
2023/10/05,12:00,0.146,0.131,0.212,0.201,0.209,0.120,0.075,southwest,3.0,No
2023/10/05,12:10,0.147,0.130,0.210,0.201,0.209,0.119,0.075,west-southwest,2.4,No
2023/10/05,12:20,0.145,0.133,0.211,0.200,0.206,0.119,0.076,west-southwest,1.3,No
2023/10/05,12:30,0.144,0.131,0.213,0.198,0.206,0.118,0.075,south-southwest,1.7,No
2023/10/05,12:40,0.144,0.131,0.212,0.201,0.205,0.119,0.075,southwest,1.5,No
2023/10/05,12:50,0.143,0.130,0.210,0.201,0.205,0.119,0.075,west-southwest,1.9,No
2023/10/05,13:00,0.145,0.131,0.210,0.200,0.206,0.120,0.076,west,2.7,Yes
2023/10/05,13:10,0.145,0.131,0.210,0.200,0.208,0.118,0.076,west-northwest,4.8,No
2023/10/05,13:20,0.144,0.131,0.211,0.199,0.207,0.118,0.076,west-northwest,6.5,No
2023/10/05,13:30,0.145,0.131,0.210,0.200,0.206,0.119,0.075,west-northwest,9.5,No
2023/10/05,13:40,0.145,0.131,0.211,0.199,0.205,0.119,0.075,west-northwest,13.7,No
2023/10/05,13:50,0.147,0.132,0.213,0.199,0.207,0.120,0.075,west-northwest,8.4,No
2023/10/05,14:00,0.145,0.132,0.212,0.201,0.210,0.119,0.076,northwest,7.2,No
2023/10/05,14:10,0.147,0.130,0.210,0.201,0.209,0.119,0.075,west-northwest,8.7,No
2023/10/05,14:20,0.148,0.131,0.215,0.200,0.209,0.119,0.076,west,5.5,No
2023/10/05,14:30,0.147,0.133,0.214,0.202,0.209,0.119,0.076,northwest,8.4,No
2023/10/05,14:40,0.145,0.132,0.210,0.202,0.208,0.119,0.076,west,7.3,No
2023/10/05,14:50,0.147,0.132,0.213,0.199,0.207,0.120,0.076,west,7.7,No
2023/10/05,15:00,0.147,0.132,0.214,0.201,0.209,0.118,0.076,west-northwest,7.7,No
2023/10/05,15:10,0.145,0.132,0.210,0.202,0.208,0.119,0.076,west,11.8,No
2023/10/05,15:20,0.146,0.132,0.213,0.201,0.208,0.119,0.075,west-northwest,10.1,No
2023/10/05,15:30,0.147,0.133,0.213,0.202,0.210,0.119,0.075,west-northwest,10.1,No
2023/10/05,15:40,0.147,0.132,0.214,0.202,0.208,0.120,0.076,-,CALM,No
2023/10/05,15:50,0.147,0.132,0.213,0.203,0.209,0.119,0.076,west-northwest,20.9,No
2023/10/05,16:00,0.147,0.132,0.212,0.202,0.210,0.121,0.076,west,17.1,No
2023/10/05,16:10,0.147,0.133,0.214,0.201,0.208,0.120,0.076,west-northwest,19.6,No
2023/10/05,16:20,0.148,0.133,0.213,0.203,0.210,0.121,0.076,west,21.3,No
2023/10/05,16:30,0.147,0.133,0.214,0.202,0.208,0.119,0.075,west-northwest,13.7,No
2023/10/05,16:40,0.147,0.132,0.214,0.203,0.208,0.120,0.076,west-northwest,14.8,No
2023/10/05,16:50,0.147,0.133,0.214,0.202,0.209,0.121,0.076,west-northwest,19.7,No
2023/10/05,17:00,0.148,0.132,0.213,0.203,0.209,0.121,0.077,west,15.4,No
2023/10/05,17:10,0.147,0.132,0.214,0.202,0.210,0.120,0.076,west,17.1,No
2023/10/05,17:20,0.148,0.133,0.214,0.203,0.209,0.120,0.077,northwest,13.1,No
2023/10/05,17:30,0.146,0.133,0.214,0.203,0.210,0.121,0.077,west,13.7,No
2023/10/05,17:40,0.148,0.132,0.214,0.202,0.209,0.120,0.076,west,16.0,No
2023/10/05,17:50,0.148,0.133,0.213,0.202,0.211,0.120,0.077,west-northwest,13.7,No
2023/10/05,18:00,0.147,0.133,0.214,0.202,0.209,0.121,0.076,west,16.0,No
2023/10/05,18:10,0.148,0.133,0.214,0.203,0.210,0.121,0.075,west-northwest,14.5,No
2023/10/05,18:20,0.148,0.134,0.215,0.202,0.209,0.120,0.077,west-northwest,14.6,No
2023/10/05,18:30,0.148,0.133,0.216,0.204,0.210,0.120,0.077,west-northwest,12.0,No
2023/10/05,18:40,0.148,0.134,0.214,0.203,0.210,0.120,0.077,west-northwest,11.5,No
2023/10/05,18:50,0.148,0.134,0.215,0.204,0.209,0.121,0.077,west-northwest,11.4,No
2023/10/05,19:00,0.147,0.133,0.214,0.202,0.209,0.120,0.076,west-northwest,10.3,No
2023/10/05,19:10,0.148,0.133,0.214,0.204,0.211,0.120,0.076,northwest,8.4,No
2023/10/05,19:20,0.148,0.133,0.214,0.202,0.209,0.120,0.076,west-northwest,6.8,No
2023/10/05,19:30,0.148,0.134,0.214,0.202,0.209,0.121,0.077,northwest,3.8,No
2023/10/05,19:40,0.148,0.134,0.215,0.203,0.208,0.121,0.077,northwest,2.8,No
2023/10/05,19:50,0.148,0.133,0.214,0.203,0.208,0.119,0.076,northwest,3.4,No
2023/10/05,20:00,0.148,0.133,0.214,0.203,0.209,0.120,0.076,northwest,2.9,No
2023/10/05,20:10,0.148,0.133,0.214,0.203,0.208,0.120,0.077,west-northwest,4.1,No
2023/10/05,20:20,0.147,0.133,0.213,0.205,0.209,0.120,0.076,northwest,4.2,No
2023/10/05,20:30,0.147,0.133,0.215,0.203,0.208,0.120,0.076,north-northwest,4.1,No
2023/10/05,20:40,0.148,0.133,0.213,0.203,0.210,0.119,0.076,northwest,5.0,No
2023/10/05,20:50,0.148,0.133,0.213,0.202,0.209,0.120,0.076,northwest,5.5,No
2023/10/05,21:00,0.147,0.133,0.214,0.202,0.210,0.119,0.076,west-northwest,6.2,No
2023/10/05,21:10,0.148,0.133,0.214,0.204,0.209,0.120,0.076,west,5.1,No
2023/10/05,21:20,0.148,0.133,0.213,0.202,0.208,0.120,0.076,west,4.9,No
2023/10/05,21:30,0.147,0.133,0.215,0.203,0.210,0.120,0.077,west-northwest,7.6,No
2023/10/05,21:40,0.148,0.133,0.213,0.202,0.208,0.120,0.076,west-northwest,9.2,No
2023/10/05,21:50,0.147,0.133,0.214,0.202,0.210,0.120,0.077,west-northwest,6.6,No
2023/10/05,22:00,0.147,0.134,0.214,0.204,0.209,0.120,0.076,west,6.4,No
2023/10/05,22:10,0.147,0.133,0.213,0.203,0.210,0.120,0.076,west,4.5,No
2023/10/05,22:20,0.148,0.133,0.214,0.203,0.208,0.120,0.076,west,2.2,No
2023/10/05,22:30,0.148,0.133,0.213,0.202,0.211,0.120,0.076,west,3.3,No
2023/10/05,22:40,0.147,0.133,0.214,0.203,0.209,0.121,0.077,west,4.2,No
2023/10/05,22:50,0.148,0.132,0.214,0.203,0.209,0.120,0.077,west,4.2,No
2023/10/05,23:00,0.147,0.133,0.214,0.202,0.210,0.120,0.076,west-southwest,4.2,No
2023/10/05,23:10,0.148,0.133,0.212,0.202,0.209,0.119,0.077,west-southwest,3.8,No
2023/10/05,23:20,0.148,0.133,0.214,0.203,0.211,0.120,0.076,west,3.9,No
2023/10/05,23:30,0.148,0.133,0.213,0.202,0.208,0.120,0.076,west,4.2,No
2023/10/05,23:40,0.148,0.132,0.213,0.203,0.210,0.120,0.077,west-southwest,3.0,No
2023/10/05,23:50,0.148,0.132,0.213,0.203,0.208,0.120,0.075,west,2.4,No
